Zurück zum Katalog

UFO 10

USA 146

AktivMilitärGEO
NORAD 25967·PAYLOAD·🇺🇸 United States

Gestartet Nov 23, 1999 von Cape Canaveral Space Force Station

Loading…

TLE

AktuellSource: Space-Track

Epoche: Sep 14, 2026, 05:08 UTC

1 25967U 99063A   26257.21415069 -.00000195  00000-0  00000-0 0  9992
2 25967   9.9179  26.7225 0004378 192.3669 188.2859  1.00268733 98242

Verfolge UFO 10 in Echtzeit mit AllMySat

Download on the App Store